{"data":{"norad_id":67974,"intl_designator":"2026-038P","name":"STARLINK-36901","alt_names":[],"object_type":"PAYLOAD","status":"ACTIVE","operator":null,"country":"US","launch_date":"2026-02-25","launch_site_code":"AFWTR","launch_vehicle":null,"mission":null,"orbit_class":"UNKNOWN","rcs_meters":null,"size_class":null,"mass_kg":null,"dimensions":null,"purposes":["comms"],"wikipedia_slug":null,"has_3d_model":false,"image_url":null,"decayed_at":null,"tle_current":{"epoch":"2026-05-24T23:51:17.743104Z","epoch_age_seconds":71497,"freshness":"FRESH","line1":"1 67974U 26038P   26144.99395536  .00016521  00000+0  51268-3 0  9997","line2":"2 67974  97.2830 155.0340 0002389 111.2594 248.8904 15.33459450 14938","mean_motion":15.3345945,"eccentricity":0.0002389,"inclination_deg":97.283,"raan_deg":155.034,"arg_perigee_deg":111.2594,"mean_anomaly_deg":248.8904,"bstar":0.00051268,"rev_number":1493,"period_min":93.90531976571,"perigee_km":463.86523685945,"apogee_km":467.13512670491,"semimajor_km":6843.6371817822,"source":"CELESTRAK","updated_at":"2026-05-25T13:38:21.775614Z"}}}